Volver al catálogo

WILDFIRE 5

ActivoCienciaPO
NORAD 57769·PAYLOAD·🇺🇸 United States

Lanzado Sep 2, 2023 desde Vandenberg Space Force Base

Loading…

Próximos Pases (próximas 24 horas)

TLE

ActualizadoSource: Space-Track

Época: Sep 14, 2026, 02:38 UTC

1 57769U 23133N   26257.10983334  .00000098  00000-0  75883-4 0  9991
2 57769  81.0004 282.4532 0007325 122.1669 238.0199 13.85752168153343

Sigue WILDFIRE 5 en tiempo real con AllMySat

Download on the App Store